Location: Big Prairie
(40.6673°N, 82.0952°W)
Time: 22:13:53
(UTC+00:00)

Meteor 1-26 Rocket - Pass Details

Date: 28 June 2022
Orbit: 810 x 924 km, 81.3° (Epoch: 16 August)

Event Time Altitude Azimuth Distance (km) Brightness Sun altitude
Rises 08:09:57 0° 340° (NNW) 3,460 7.9 -16.2°
Reaches altitude 10° 08:12:34 10° 332° (NNW) 2,536 7.0 -15.9°
Maximum altitude 08:17:41 34° 269° (W) 1,438 5.1 -15.3°
Enters shadow 08:20:31 22° 223° (SW) 1,860 5.3 -15.0°
